LTU120 EDDV-EDDN

Flight info

Callsign LTU120
Flight time 0h 46m
Altitude 27000
Route NORTA1G NORTA P605 ELNAT/N0413F230 Z190 VELIS/N0395F190 T194 DODAS DODAS1V
Aircraft L101/H-SDFGHIRWXY/S

Departure

Time 2026-05-07 13:20
Airport Hannover Airport (EDDV)

Arrival

Time 2026-05-07 14:07
Airport Nuremberg Airport (EDDN)
Time Latitude Longitude Altitude Speed Heading
2026-05-07 12:51 52.45823 9.70185 183 ft 0 kts 338°
2026-05-07 13:08 52.45822 9.70186 183 ft 0 kts 338°
2026-05-07 13:08 52.45809 9.70195 183 ft 3 kts 338°
2026-05-07 13:08 52.45790 9.70207 183 ft 2 kts 338°
2026-05-07 13:09 52.45772 9.70219 183 ft 3 kts 338°
2026-05-07 13:09 52.45753 9.70230 183 ft 3 kts 348°
2026-05-07 13:09 52.45733 9.70235 183 ft 3 kts
2026-05-07 13:09 52.45714 9.70234 183 ft 2 kts
2026-05-07 13:10 52.45702 9.70233 183 ft 3 kts 357°
2026-05-07 13:10 52.45684 9.70238 183 ft 3 kts 331°
2026-05-07 13:10 52.45668 9.70257 183 ft 3 kts 304°
2026-05-07 13:10 52.45660 9.70286 183 ft 3 kts 281°
2026-05-07 13:11 52.45658 9.70306 183 ft 1 kts 272°
2026-05-07 13:11 52.45657 9.70328 183 ft 1 kts 272°
2026-05-07 13:11 52.45657 9.70330 183 ft 0 kts 272°
2026-05-07 13:14 52.45657 9.70328 183 ft 1 kts 272°
2026-05-07 13:14 52.45659 9.70279 183 ft 7 kts 273°
2026-05-07 13:14 52.45663 9.70160 183 ft 13 kts 273°
2026-05-07 13:15 52.45669 9.69977 183 ft 19 kts 273°
2026-05-07 13:15 52.45628 9.69811 184 ft 16 kts 229°
2026-05-07 13:15 52.45609 9.69619 184 ft 19 kts 274°
2026-05-07 13:15 52.45616 9.69380 184 ft 23 kts 272°
2026-05-07 13:16 52.45622 9.69103 183 ft 26 kts 274°
2026-05-07 13:16 52.45631 9.68801 184 ft 27 kts 271°
2026-05-07 13:16 52.45640 9.68488 184 ft 29 kts 273°
2026-05-07 13:16 52.45649 9.68159 184 ft 29 kts 273°
2026-05-07 13:17 52.45657 9.67848 184 ft 21 kts 265°
2026-05-07 13:17 52.45568 9.67702 192 ft 19 kts 181°
2026-05-07 13:17 52.45494 9.67827 188 ft 8 kts 93°
2026-05-07 13:17 52.45494 9.67830 188 ft 0 kts 93°
2026-05-07 13:19 52.45493 9.67856 186 ft 0 kts 93°
2026-05-07 13:19 52.45492 9.67888 188 ft 0 kts 93°
2026-05-07 13:19 52.45492 9.67898 188 ft 0 kts 93°
2026-05-07 13:20 52.45491 9.67922 188 ft 19 kts 92°
2026-05-07 13:20 52.45464 9.68756 196 ft 124 kts 92°
2026-05-07 13:20 52.45410 9.70545 645 ft 167 kts 91°
2026-05-07 13:20 52.45346 9.72292 1914 ft 154 kts 91°
2026-05-07 13:21 52.45276 9.74077 2147 ft 160 kts 92°
2026-05-07 13:21 52.45225 9.75957 2397 ft 169 kts 90°
2026-05-07 13:21 52.45195 9.78066 3035 ft 197 kts 90°
2026-05-07 13:21 52.45155 9.80348 4461 ft 208 kts 91°
2026-05-07 13:22 52.45085 9.82868 4937 ft 234 kts 92°
2026-05-07 13:22 52.44982 9.85558 4803 ft 231 kts 92°
2026-05-07 13:22 52.44853 9.88156 4950 ft 227 kts 99°
2026-05-07 13:22 52.44208 9.90570 5393 ft 244 kts 126°
2026-05-07 13:23 52.42892 9.92430 5911 ft 258 kts 150°
2026-05-07 13:23 52.41168 9.93342 6462 ft 265 kts 169°
2026-05-07 13:23 52.39307 9.93298 6935 ft 271 kts 188°
2026-05-07 13:23 52.37465 9.92553 7473 ft 274 kts 195°
2026-05-07 13:24 52.35628 9.91636 7981 ft 281 kts 195°
2026-05-07 13:24 52.33624 9.90750 8595 ft 314 kts 193°
2026-05-07 13:24 52.31394 9.89965 9303 ft 338 kts 191°
2026-05-07 13:24 52.29055 9.89319 10494 ft 341 kts 189°
2026-05-07 13:25 52.26713 9.88763 11842 ft 340 kts 188°
2026-05-07 13:25 52.24338 9.88217 12909 ft 350 kts 188°
2026-05-07 13:25 52.21875 9.87701 13790 ft 364 kts 187°
2026-05-07 13:25 52.19320 9.87230 14663 ft 375 kts 186°
2026-05-07 13:26 52.16676 9.86764 15413 ft 393 kts 187°
2026-05-07 13:26 52.13963 9.86273 15702 ft 419 kts 187°
2026-05-07 13:26 52.13253 9.86140 15792 ft 425 kts 187°
2026-05-07 13:27 52.10278 9.85565 16770 ft 429 kts 187°
2026-05-07 13:27 52.07382 9.84989 18701 ft 411 kts 187°
2026-05-07 13:27 52.04575 9.84427 20253 ft 404 kts 187°
2026-05-07 13:27 52.01770 9.83871 21322 ft 410 kts 188°
2026-05-07 13:28 51.98885 9.83302 21790 ft 429 kts 188°
2026-05-07 13:28 51.95844 9.82710 22165 ft 448 kts 188°
2026-05-07 13:28 51.92730 9.82112 23129 ft 451 kts 188°
2026-05-07 13:28 51.89639 9.81524 24478 ft 443 kts 187°
2026-05-07 13:29 51.86622 9.80944 25443 ft 444 kts 188°
2026-05-07 13:29 51.83519 9.80340 25892 ft 456 kts 187°
2026-05-07 13:29 51.80339 9.79725 26464 ft 463 kts 187°
2026-05-07 13:29 51.77177 9.79120 26958 ft 446 kts 187°
2026-05-07 13:30 51.74182 9.78553 26892 ft 420 kts 187°
2026-05-07 13:30 51.71339 9.78015 26963 ft 406 kts 187°
2026-05-07 13:30 51.68528 9.77481 27037 ft 408 kts 187°
2026-05-07 13:30 51.65698 9.76941 27024 ft 411 kts 187°
2026-05-07 13:31 51.62855 9.76400 27025 ft 411 kts 187°
2026-05-07 13:31 51.60019 9.75860 27024 ft 410 kts 187°
2026-05-07 13:31 51.57190 9.75325 27022 ft 409 kts 187°
2026-05-07 13:31 51.54364 9.74792 27031 ft 410 kts 187°
2026-05-07 13:32 51.51530 9.74259 27012 ft 411 kts 187°
2026-05-07 13:32 51.48691 9.73726 27044 ft 411 kts 187°
2026-05-07 13:32 51.45851 9.73195 27038 ft 410 kts 186°
2026-05-07 13:32 51.43018 9.72694 27036 ft 409 kts 186°
2026-05-07 13:33 51.40182 9.72225 27031 ft 410 kts 185°
2026-05-07 13:33 51.37339 9.71774 27021 ft 410 kts 185°
2026-05-07 13:33 51.34493 9.71332 27032 ft 411 kts 185°
2026-05-07 13:33 51.31646 9.70890 27024 ft 411 kts 185°
2026-05-07 13:34 51.28800 9.70444 27010 ft 410 kts 185°
2026-05-07 13:34 51.23156 9.69579 26996 ft 411 kts 182°
2026-05-07 13:34 51.20308 9.69895 26996 ft 410 kts 168°
2026-05-07 13:35 51.17586 9.71217 27011 ft 410 kts 157°
2026-05-07 13:35 51.15056 9.73302 27026 ft 411 kts 148°
2026-05-07 13:35 51.12680 9.75885 27046 ft 415 kts 143°
2026-05-07 13:35 51.10401 9.78715 27024 ft 415 kts 141°
2026-05-07 13:36 51.08160 9.81612 27017 ft 416 kts 141°
2026-05-07 13:36 51.05901 9.84483 27014 ft 416 kts 142°
2026-05-07 13:36 51.03600 9.87274 27014 ft 416 kts 143°
2026-05-07 13:36 51.01259 9.89971 27011 ft 416 kts 144°
2026-05-07 13:37 50.98882 9.92594 27010 ft 416 kts 146°
2026-05-07 13:37 50.96485 9.95159 27014 ft 415 kts 146°
2026-05-07 13:37 50.94078 9.97692 27014 ft 415 kts 146°
2026-05-07 13:37 50.91672 10.00210 27009 ft 414 kts 146°
2026-05-07 13:38 50.89270 10.02728 27004 ft 415 kts 146°
2026-05-07 13:38 50.86854 10.05271 27009 ft 418 kts 146°
2026-05-07 13:38 50.84435 10.07831 27008 ft 418 kts 146°
2026-05-07 13:38 50.82014 10.10402 27007 ft 419 kts 146°
2026-05-07 13:39 50.79598 10.12973 27004 ft 419 kts 146°
2026-05-07 13:39 50.77179 10.15550 27006 ft 419 kts 146°
2026-05-07 13:39 50.74765 10.18119 27002 ft 419 kts 146°
2026-05-07 13:39 50.72347 10.20688 27003 ft 419 kts 146°
2026-05-07 13:40 50.69966 10.23213 27003 ft 419 kts 146°
2026-05-07 13:40 50.67547 10.25772 27001 ft 419 kts 146°
2026-05-07 13:40 50.65124 10.28332 27001 ft 419 kts 146°
2026-05-07 13:40 50.62701 10.30883 27003 ft 419 kts 146°
2026-05-07 13:41 50.60275 10.33429 26999 ft 419 kts 145°
2026-05-07 13:41 50.57850 10.35970 27000 ft 419 kts 146°
2026-05-07 13:41 50.55416 10.38515 26998 ft 419 kts 145°
2026-05-07 13:41 50.52992 10.41052 27000 ft 419 kts 145°
2026-05-07 13:42 50.50562 10.43606 26998 ft 420 kts 145°
2026-05-07 13:42 50.48139 10.46152 26992 ft 419 kts 147°
2026-05-07 13:42 50.45561 10.48295 26975 ft 419 kts 157°
2026-05-07 13:42 50.42798 10.49757 26994 ft 420 kts 164°
2026-05-07 13:43 50.39930 10.50721 26990 ft 422 kts 170°
2026-05-07 13:43 50.37024 10.51389 26980 ft 423 kts 173°
2026-05-07 13:43 50.34091 10.51942 26991 ft 425 kts 173°
2026-05-07 13:43 50.31157 10.52504 26995 ft 425 kts 172°
2026-05-07 13:44 50.28227 10.53139 26990 ft 424 kts 171°
2026-05-07 13:44 50.25307 10.53866 26989 ft 425 kts 170°
2026-05-07 13:44 50.22402 10.54671 26978 ft 424 kts 169°
2026-05-07 13:44 50.19506 10.55530 26987 ft 424 kts 169°
2026-05-07 13:45 50.16615 10.56419 26984 ft 424 kts 168°
2026-05-07 13:45 50.13716 10.57323 26982 ft 425 kts 169°
2026-05-07 13:45 50.10805 10.58227 26758 ft 432 kts 168°
2026-05-07 13:45 50.07786 10.59154 25771 ft 447 kts 169°
2026-05-07 13:46 50.04729 10.60078 24734 ft 446 kts 169°
2026-05-07 13:46 50.02724 10.60677 24068 ft 442 kts 170°
2026-05-07 13:46 49.99728 10.61563 23024 ft 434 kts 170°
2026-05-07 13:46 49.96787 10.62424 21930 ft 427 kts 170°
2026-05-07 13:47 49.93901 10.63342 20879 ft 420 kts 167°
2026-05-07 13:47 49.91113 10.64557 19961 ft 412 kts 163°
2026-05-07 13:47 49.88450 10.66050 19441 ft 404 kts 160°
2026-05-07 13:47 49.85849 10.67686 18997 ft 404 kts 159°
2026-05-07 13:48 49.83248 10.69303 18534 ft 402 kts 160°
2026-05-07 13:48 49.80623 10.70777 18013 ft 399 kts 165°
2026-05-07 13:48 49.77940 10.71736 17467 ft 394 kts 173°
2026-05-07 13:48 49.75233 10.72121 16992 ft 389 kts 179°
2026-05-07 13:49 49.72540 10.72222 16515 ft 386 kts 181°
2026-05-07 13:49 49.69861 10.72317 16025 ft 384 kts 180°
2026-05-07 13:49 49.67220 10.72821 15492 ft 384 kts 167°
2026-05-07 13:49 49.64760 10.74404 14939 ft 385 kts 150°
2026-05-07 13:50 49.62689 10.76997 14357 ft 383 kts 133°
2026-05-07 13:50 49.61202 10.80375 13883 ft 382 kts 116°
2026-05-07 13:50 49.60405 10.84262 13377 ft 381 kts 98°
2026-05-07 13:50 49.60346 10.88325 12716 ft 379 kts 82°
2026-05-07 13:51 49.60777 10.92309 11973 ft 375 kts 78°
2026-05-07 13:51 49.61144 10.96281 11221 ft 373 kts 85°
2026-05-07 13:51 49.61122 11.00252 10479 ft 369 kts 95°
2026-05-07 13:51 49.60743 11.04135 9748 ft 364 kts 102°
2026-05-07 13:52 49.60195 11.07880 9009 ft 352 kts 104°
2026-05-07 13:52 49.59655 11.11464 8461 ft 336 kts 103°
2026-05-07 13:52 49.59216 11.14919 7942 ft 322 kts 100°
2026-05-07 13:52 49.58873 11.18258 7446 ft 310 kts 98°
2026-05-07 13:53 49.58579 11.21498 6994 ft 300 kts 98°
2026-05-07 13:53 49.58302 11.24601 6744 ft 287 kts 98°
2026-05-07 13:53 49.58024 11.27598 6497 ft 277 kts 99°
2026-05-07 13:53 49.57744 11.30486 6238 ft 269 kts 100°
2026-05-07 13:54 49.57458 11.33332 5999 ft 269 kts 100°
2026-05-07 13:54 49.57169 11.36156 5860 ft 263 kts 99°
2026-05-07 13:54 49.56878 11.38968 5598 ft 266 kts 99°
2026-05-07 13:54 49.56608 11.41720 5305 ft 253 kts 99°
2026-05-07 13:55 49.56350 11.44320 5074 ft 238 kts 99°
2026-05-07 13:55 49.56103 11.46757 5036 ft 224 kts 99°
2026-05-07 13:55 49.55862 11.49092 5104 ft 224 kts 99°
2026-05-07 13:55 49.55614 11.51512 5045 ft 231 kts 99°
2026-05-07 13:56 49.55359 11.53994 4983 ft 232 kts 99°
2026-05-07 13:56 49.55107 11.56409 4947 ft 231 kts 99°
2026-05-07 13:56 49.54854 11.58835 4945 ft 229 kts 99°
2026-05-07 13:56 49.54565 11.61246 4935 ft 231 kts 107°
2026-05-07 13:57 49.53757 11.63346 4910 ft 228 kts 136°
2026-05-07 13:57 49.52452 11.64633 4935 ft 222 kts 164°
2026-05-07 13:57 49.50955 11.64903 4947 ft 215 kts 187°
2026-05-07 13:57 49.49489 11.64579 4956 ft 212 kts 196°
2026-05-07 13:58 49.48052 11.64084 4947 ft 211 kts 197°
2026-05-07 13:58 49.46610 11.63554 4941 ft 208 kts 202°
2026-05-07 13:58 49.45444 11.62386 4910 ft 201 kts 231°
2026-05-07 13:58 49.44826 11.60509 4928 ft 197 kts 257°
2026-05-07 13:59 49.44732 11.58432 4956 ft 191 kts 272°
2026-05-07 13:59 49.44877 11.56429 4953 ft 186 kts 278°
2026-05-07 13:59 49.45100 11.54481 4952 ft 185 kts 280°
2026-05-07 13:59 49.45335 11.52542 4946 ft 185 kts 280°
2026-05-07 14:00 49.45565 11.50595 4955 ft 186 kts 279°
2026-05-07 14:00 49.45784 11.48637 4907 ft 188 kts 279°
2026-05-07 14:00 49.45995 11.46650 4651 ft 187 kts 279°
2026-05-07 14:00 49.46201 11.44676 4389 ft 186 kts 278°
2026-05-07 14:01 49.46400 11.42730 4153 ft 182 kts 279°
2026-05-07 14:01 49.46601 11.40801 4020 ft 183 kts 278°
2026-05-07 14:01 49.46796 11.38879 3978 ft 181 kts 278°
2026-05-07 14:01 49.46989 11.36961 3967 ft 182 kts 278°
2026-05-07 14:02 49.47193 11.35050 4048 ft 179 kts 279°
2026-05-07 14:02 49.47383 11.33261 4052 ft 159 kts 279°
2026-05-07 14:02 49.47545 11.31653 3881 ft 147 kts 278°
2026-05-07 14:02 49.47693 11.30148 3693 ft 141 kts 278°
2026-05-07 14:03 49.47843 11.28626 3555 ft 146 kts 278°
2026-05-07 14:03 49.47995 11.27068 3374 ft 148 kts 278°
2026-05-07 14:03 49.48147 11.25504 3180 ft 147 kts 279°
2026-05-07 14:03 49.48299 11.23948 3007 ft 148 kts 278°
2026-05-07 14:04 49.48449 11.22387 2818 ft 148 kts 278°
2026-05-07 14:04 49.48603 11.20822 2595 ft 148 kts 279°
2026-05-07 14:04 49.48754 11.19252 2412 ft 149 kts 278°
2026-05-07 14:04 49.48909 11.17687 2188 ft 146 kts 279°
2026-05-07 14:05 49.49058 11.16162 1960 ft 144 kts 279°
2026-05-07 14:05 49.49224 11.14641 1803 ft 148 kts 279°
2026-05-07 14:05 49.49380 11.13078 1542 ft 142 kts 277°
2026-05-07 14:05 49.49502 11.11588 1364 ft 139 kts 276°
2026-05-07 14:06 49.49638 11.10132 1175 ft 138 kts 278°
2026-05-07 14:06 49.49771 11.08746 1036 ft 116 kts 281°
2026-05-07 14:06 49.49878 11.07738 1038 ft 79 kts 279°
2026-05-07 14:06 49.49951 11.07012 1023 ft 61 kts 278°
2026-05-07 14:07 49.49988 11.06555 1024 ft 22 kts 252°
2026-05-07 14:07 49.49883 11.06498 1023 ft 11 kts 159°
2026-05-07 14:07 49.49879 11.06500 1023 ft 0 kts 159°
2026-05-07 14:09 49.49865 11.06508 1023 ft 6 kts 160°
2026-05-07 14:10 49.49814 11.06559 1022 ft 12 kts 128°
2026-05-07 14:10 49.49785 11.06705 1022 ft 17 kts 98°
2026-05-07 14:10 49.49766 11.06898 1024 ft 19 kts 98°
2026-05-07 14:10 49.49744 11.07115 1025 ft 21 kts 98°
2026-05-07 14:11 49.49728 11.07281 1031 ft 16 kts 98°
2026-05-07 14:11 49.49709 11.07475 1034 ft 20 kts 98°
2026-05-07 14:11 49.49688 11.07698 1037 ft 18 kts 99°
2026-05-07 14:11 49.49648 11.07771 1036 ft 3 kts 182°
2026-05-07 14:12 49.49611 11.07767 1035 ft 7 kts 179°
2026-05-07 14:12 49.49579 11.07816 1035 ft 7 kts 96°
2026-05-07 14:12 49.49573 11.07901 1035 ft 10 kts 98°
2026-05-07 14:12 49.49560 11.08028 1035 ft 14 kts 99°
2026-05-07 14:13 49.49542 11.08204 1035 ft 18 kts 98°
2026-05-07 14:13 49.49525 11.08391 1039 ft 11 kts 98°
2026-05-07 14:13 49.49541 11.08483 1039 ft 9 kts 60°
2026-05-07 14:13 49.49550 11.08505 1038 ft 0 kts 56°